Showing default

FALCONSAT-10, 58291

Orbit data source: Space-Track

FALCONSAT-10, 58291 is a payload satellite owned by USAF Academy (US) in SSO that was launched on Sat, 11 Nov 2023 UTC via an FALCON 9 launch vehicle from the Air Force Western Test Range (AFWTR). Payload-class satellites include a variety of spacecraft equipped with specific instruments for various scientific and technological missions. These include communications satellites like Starlink; space stations such as the ISS; scientific satellites like the Hubble; Earth observation satellites from companies like Planet Labs, Umbra, and HawkEye 360; GPS; miniature CubeSats for education and research; and military/defense satellites.

Loading next visibility...
Identifier
58291, 2023-174AM
Orbit
SSO
Country
Flag of USUS
Related business
Manufacturer
USAF Academy
Mission
Operational Defense Technology
Bus & Motor
FALCONSAT, Unknown motor
Mass
140 kg wet, 140 kg dry
Launch date (UTC)
2023-11-11 (2 years ago)
Launch vehicle
FALCON 9
Launch site
Air Force Western Test Range (AFWTR)
Object type
Payload
Rocket body
Debris
Shape & HBR
Box, 0.5 m
Radar Cross Section
0.780 m², Medium (>0.1 m² and < 1m²)

Expand to show TLE details & history
Last TLE update: 10 hours ago

TLE from 10 hours ago
0 FALCONSAT-10
1 58291U 23174AM  25261.18062325  .00004748  00000-0  19841-3 0  9994
2 58291  97.4111 335.1535 0010548  71.4433 288.7949 15.24049063103280
Epoch: 2025-09-18T04:20Z
TLE epoch observation values (Epoch: 2025-09-18T04:20:05.848Z)
Latitude
-0.00007°
Longitude
-87.21677°
Altitude
494.409 km
Speed
7.619 km/s
True Right ascension
22h 20m 36s
True Declination
0° 00' 00"
Sunlit
Object was in full shadow at epoch
Visualization orbit readout
Latitude
Unknown
Longitude
Unknown
Altitude
Unknown
Speed
Unknown
Apparent Right ascension
Unknown
Apparent Declination
Unknown
Sunlit
N/A
Visualization observer readout
Local Sidereal Time
06:58:34
Azimuth
Unknown
Elevation
Unknown
Doppler factor
Unknown
Orbital elements
Apogee altitude
497.848 km
Perigee altitude
483.358 km
Semi-major axis
6,868.74 km
Eccentricity
0.00105
Inclination
97.4111°
RAAN
335.1535°
Arg. of periapsis
71.4433°
True anomaly
288.68043°
Mean anomaly
288.7949°
Eccentric anomaly
288.73767°
Mean motion
3.81266 °/min
Orbital period
94.42 mins
BSTAR
0.00019841
Loading maneuver chart data...
Computing Atmospheric mass density...
Loading historical data...
Loading historical data...
Loading historical data...
Loading historical data...
Loading historical data...
Loading historical data...
Loading historical data...

Documentation

Showing up to 5 results
|